[[[{"header":{"parameterUnit":"kt","parameterCategory":2,"dx":1,"dy":1,"la1":30.253999710083008,"la2":30.299108505249023,"lo1":-89.0895004272461,"lo2":-89.04439544677734,"nx":28,"ny":28,"refTime":"2022-09-24T21:00:00:Z","depth":0,"parameterNumber":1,"parameterNumberName":"U-component_of_WINDS"},"data":[-2.1252,-2.1297,-2.1269,-2.1308,-2.1289,-2.1312,-2.1311,-2.1307,-2.1297,-2.1322,-2.1331,-2.1308,-2.1288,-2.1294,-2.1303,-2.1293,-2.1301,-2.1337,-2.132,-2.1178,-2.1157,-2.1137,-2.1124,-2.1339,-2.1339,-2.1471,-2.1473,-2.1474,-2.1152,-2.1133,-2.1145,-2.1137,-2.1148,-2.1095,-2.1085,-2.1098,-2.112,-2.1108,-2.1115,-2.1135,-2.1147,-2.1114,-2.1122,-2.1144,-2.1121,-2.1149,-2.1148,-2.1146,-2.0993,-2.098,-2.1167,-2.1167,-2.1167,-2.1167,-2.1167,-2.1167,-2.0962,-2.099,-2.0968,-2.0981,-2.0969,-2.0965,-2.0987,-2.0957,-2.0969,-2.0973,-2.0936,-2.0961,-2.0944,-2.094,-2.0931,-2.0951,-2.0916,-2.0938,-2.0944,-2.0951,-2.0964,-2.078,-2.0951,-2.095,-2.0949,-2.0949,-2.0948,0,-2.0814,-2.0788,-2.0797,-2.0799,-2.0806,-2.0804,-2.0798,-2.0811,-2.0747,-2.076,-2.0777,-2.0782,-2.0792,-2.0806,-2.0807,-2.0793,-2.0743,-2.0733,-2.0749,-2.0769,-2.0786,-2.0781,-2.0535,-2.0729,-2.0727,-2.0726,-2.0725,-2.0724,-2.0623,-2.0659,-2.0622,-2.0632,-2.0621,-2.0639,-2.0644,-2.0584,-2.0593,-2.0577,-2.0606,-2.0617,-2.0624,-2.0657,-2.0623,-2.0632,-2.0608,-2.0685,-2.0609,-2.0626,-2.0612,-2.0612,-2.0616,-2.0703,-2.0705,-2.0708,-2.0709,0,-2.0519,-2.0471,-2.0517,-2.0476,-2.0467,-2.0508,-2.0475,-2.0501,-2.0468,-2.05,-2.0504,-2.0455,-2.0473,-2.0426,-2.0437,-2.0412,-2.0483,-2.0457,-2.0488,-2.0482,-2.0549,-2.0544,-2.0768,-2.0796,-2.057,-2.0572,-2.0574,0,-2.0339,-2.0388,-2.0313,-2.0343,-2.0395,-2.0333,-2.0388,-2.0365,-2.0348,-2.0373,-2.0305,-2.033,-2.0265,-2.0283,-2.0247,-2.0295,-2.0297,-2.0282,-2.0272,-2.029,-2.0292,-2.0296,-2.0287,-2.0245,-2.0244,-2.0243,-2.0242,0,-2.0183,-2.0199,-2.0246,-2.0242,-2.0204,-2.0228,-2.0214,-2.0194,-2.02,-2.0199,-2.0203,-2.0207,-2.0211,-2.0216,-2.0169,-2.0119,-2.0226,-2.0148,-2.0212,-2.0213,-2.024,-2.024,-2.0447,-2.0241,-2.024,-2.024,-2.024,0,-2.0031,-2.003,-2.0103,-2.007,-2.0078,-2.0108,-2.0108,-2.0123,-2.0107,-2.0085,-2.0085,-2.0035,-2.0071,-1.9997,-2.0047,-1.9996,-2.0004,-1.9992,-1.9995,-1.9998,-1.9918,-2.0045,-2.0244,-2.0265,-1.9998,-1.9996,-1.9994,0,-1.9867,-1.9928,-1.9875,-1.9946,-1.9968,-1.989,-1.9923,-1.9911,-1.9884,-1.99,-1.987,-1.9889,-1.9824,-1.9824,-1.9854,-1.9826,-1.9893,-1.9815,-1.9843,-1.9845,-1.9852,-2.0034,-2.0077,-2.0205,-1.9968,-1.997,-1.9972,0,-1.9734,-1.9686,-1.9703,-1.9696,-1.9668,-1.9686,-1.9723,-1.9727,-1.9741,-1.9733,-1.9765,-1.9789,-1.9741,-1.9741,-1.9701,-1.9735,-1.9846,-1.968,-1.9679,-1.9714,-1.9949,-1.999,-2.0012,-1.9811,-1.9814,-1.9817,-1.9951,0,-1.952,-1.9543,-1.9584,-1.9572,-1.9577,-1.9619,-1.9566,-1.9579,-1.9539,-1.9511,-1.9555,-1.9533,-1.9538,-1.9549,-1.9511,-1.9604,-1.9582,-1.9531,-1.9458,-1.9577,-1.962,-1.9637,-1.9398,-1.9395,-1.9393,-1.9391,0,0,-1.9377,-1.9409,-1.9349,-1.9382,-1.9384,-1.9302,-1.9352,-1.9344,-1.933,-1.9334,-1.9291,-1.9323,-1.9307,-1.9367,-1.94,-1.9401,-1.9414,-1.9375,-1.952,-1.9534,-1.9548,-1.9595,-1.9614,-1.9388,-1.9387,-1.9386,-1.9385,0,-1.9288,-1.9269,-1.9318,-1.9306,-1.9287,-1.9253,-1.9265,-1.9232,-1.9216,-1.9257,-1.9192,-1.9212,-1.9239,-1.9231,-1.9231,-1.9365,-1.9316,-1.937,-1.9461,-1.9501,-1.9518,-1.9533,-1.9583,-1.9602,-1.938,-1.9381,-1.9381,0,-1.9149,-1.9124,-1.9141,-1.9138,-1.9125,-1.9149,-1.9059,-1.9088,-1.9106,-1.9017,-1.9061,-1.9042,-1.9027,-1.9089,-1.9115,-1.9078,-1.923,-1.9172,-1.9184,-1.9187,-1.9223,-1.9244,-1.9262,-1.9018,-1.9017,-1.9016,0,0,-1.908,-1.9101,-1.9055,-1.9115,-1.9111,-1.9062,-1.9069,-1.903,-1.9017,-1.9012,-1.8987,-1.8978,-1.8992,-1.9004,-1.9015,-1.909,-1.9084,-1.913,-1.9147,-1.9161,-1.9171,-1.9212,-1.9232,-1.9012,-1.9012,-1.9012,0,0,-1.9048,-1.8997,-1.8958,-1.9021,-1.901,-1.897,-1.901,-1.8962,-1.8966,-1.8956,-1.8893,-1.8888,-1.8945,-1.8929,-1.8882,-1.8989,-1.8917,-1.8927,-1.8997,-1.9018,-1.9035,-1.9039,-1.8788,0,0,0,0,0,-1.893,-1.9002,-1.8968,-1.8971,-1.8967,-1.8989,-1.8988,-1.8937,-1.8887,-1.8919,-1.8891,-1.8836,-1.889,-1.8847,-1.8851,-1.8906,-1.8961,-1.897,-1.8979,-1.9086,-1.9109,-1.9128,0,0,0,0,0,0,-1.8931,-1.8934,-1.8966,-1.893,-1.8929,-1.8986,-1.889,-1.8878,-1.8882,-1.8871,-1.8844,-1.8835,-1.8793,-1.8841,-1.8846,-1.8899,-1.8786,-1.8965,-1.8972,-1.8979,-1.9094,-1.9112,-1.9128,0,0,0,0,0,-1.8931,-1.8933,-1.8941,-1.8929,-1.8928,-1.8876,-1.8887,-1.8876,-1.8879,-1.8834,-1.8824,-1.884,-1.8796,-1.8796,-1.8844,-1.8898,-1.8782,-1.8784,-1.897,-1.8976,-1.8981,-1.9103,0,0,0,0,0,0,-1.8931,-1.8924,-1.894,-1.8938,-1.8897,-1.8872,-1.8866,-1.8875,-1.884,-1.8831,-1.8827,-1.8819,-1.8799,-1.8799,-1.88,-1.8901,-1.8779,-1.8781,-1.8783,-1.8974,-1.8979,-1.8983,0,0,0,0,0,0,-1.8922,-1.8923,-1.8939,-1.8902,-1.8895,-1.8869,-1.8864,-1.8896,-1.8841,-1.8835,-1.8827,-1.8824,-1.8798,-1.8801,-1.8801,-1.8854,-1.8777,-1.8779,-1.878,-1.8781,-1.8978,-1.8982,0,0,0,0,0,0,-1.8922,-1.8922,-1.8902,-1.8897,-1.889,-1.8862,-1.8897,-1.8897,-1.8808,-1.8838,-1.8799,-1.8794,-1.8802,-1.8801,-1.8803,-1.8856,-1.8855,-1.8777,-1.8778,-1.8779,-1.878,0,0,0,0,0,0,0,-1.8921,-1.893,-1.8953,-1.8893,-1.8887,-1.8917,-1.8917,-1.8916,-1.8807,-1.8803,-1.88,-1.8796,-1.8766,-1.8768,-1.877,-1.8858,0,0,-1.8777,-1.8778,0,0,0,0,0,0,0,0,-1.8929,-1.893,-1.8953,-1.8952,-1.8952,-1.8917,-1.8917,-1.8916,-1.8806,-1.8803,-1.8801,-1.8798,-1.8767,-1.8768,-1.877,0,0,0,0,0,0,0,0,0,0,0,0,0,0,0,-1.8953,-1.8952,0,-1.8917,-1.8917,-1.8917,-1.8806,-1.8804,-1.8801,-1.8799,-1.8767,-1.8769,-1.877,0,0,0,0,0,0,0,0,0,0,0,0,0,0,0,0,0,0,0,0,0,0,0,0,0,0,0,0,0,0,0,0,0,0,0,0,0,0,0,0,0,0,0,0,0,0,0,0,0,0,0,0,0,0,0,0,0,0,0,0,0,0,0,0,0,0,0,0,0]}],[{"header":{"parameterUnit":"kt","parameterCategory":2,"dx":1,"dy":1,"la1":30.253999710083008,"la2":30.299108505249023,"lo1":-89.0895004272461,"lo2":-89.04439544677734,"nx":28,"ny":28,"refTime":"2022-09-24T21:00:00:Z","depth":0,"parameterNumber":2,"parameterNumberName":"V-component_of_WINDS"},"data":[-2.9967,-3.0019,-3.0019,-3.0077,-3.0086,-3.0125,-3.0139,-3.0156,-3.0169,-3.0214,-3.0239,-3.0243,-3.0254,-3.0283,-3.0309,-3.031,-3.0321,-3.034,-3.0337,-3.0255,-3.0244,-3.0233,-3.0221,-3.0342,-3.0343,-3.0423,-3.0424,-3.0424,-2.9907,-2.9917,-2.9948,-2.9978,-3.0004,-2.9985,-3.0006,-3.0029,-3.0064,-3.008,-3.0105,-3.0144,-3.0174,-3.0179,-3.0207,-3.0229,-3.0222,-3.0237,-3.0236,-3.0238,-3.015,-3.0138,-3.0243,-3.0243,-3.0243,-3.0243,-3.0243,-3.0243,-2.9797,-2.9828,-2.9846,-2.9879,-2.9894,-2.9913,-2.9942,-2.9946,-2.9975,-3.0005,-2.9998,-3.0036,-3.0051,-3.0084,-3.0094,-3.0123,-3.0106,-3.0122,-3.0126,-3.013,-3.0136,-3.0021,-3.0128,-3.0128,-3.0127,-3.0127,-3.0127,0,-2.9717,-2.9715,-2.9744,-2.9774,-2.9798,-2.982,-2.984,-2.9857,-2.985,-2.9874,-2.9908,-2.9927,-2.9965,-2.9996,-3.0021,-3.0029,-3.0011,-3.0009,-3.002,-3.0025,-3.0026,-3.0027,-2.9884,-3.0006,-3.0005,-3.0004,-3.0003,-3.0003,-2.9607,-2.9643,-2.9661,-2.9682,-2.9693,-2.9726,-2.9745,-2.9736,-2.9757,-2.9779,-2.9805,-2.9837,-2.9861,-2.9915,-2.9917,-2.9944,-2.9936,-2.9983,-2.994,-2.9943,-2.9937,-2.9936,-2.9939,-2.9992,-2.9993,-2.9994,-2.9995,0,-2.9545,-2.9544,-2.9599,-2.9613,-2.9618,-2.9655,-2.9666,-2.9696,-2.9696,-2.9736,-2.9745,-2.9745,-2.9778,-2.9773,-2.9809,-2.9805,-2.9865,-2.9855,-2.986,-2.9858,-2.99,-2.9896,-3.0035,-3.0053,-2.9927,-2.9928,-2.9929,0,-2.9451,-2.9498,-2.9494,-2.9526,-2.9578,-2.9568,-2.9619,-2.9624,-2.9638,-2.9669,-2.9649,-2.9679,-2.9667,-2.9696,-2.9691,-2.9738,-2.9745,-2.9745,-2.9743,-2.9747,-2.9748,-2.9758,-2.9752,-2.9736,-2.9736,-2.9735,-2.9735,0,-2.9355,-2.9408,-2.946,-2.9471,-2.949,-2.9514,-2.9523,-2.9538,-2.9557,-2.9579,-2.9591,-2.9618,-2.9633,-2.9654,-2.9647,-2.9618,-2.9705,-2.9663,-2.9705,-2.9705,-2.9725,-2.9724,-2.9848,-2.9734,-2.9733,-2.9733,-2.9733,0,-2.9279,-2.9305,-2.938,-2.9395,-2.9409,-2.9443,-2.947,-2.9497,-2.9514,-2.9513,-2.9531,-2.9517,-2.9558,-2.9518,-2.9574,-2.9539,-2.9554,-2.9558,-2.9561,-2.9565,-2.952,-2.9591,-2.9709,-2.9722,-2.9567,-2.9566,-2.9565,0,-2.917,-2.9245,-2.9238,-2.9309,-2.9344,-2.9319,-2.9356,-2.9372,-2.9374,-2.9402,-2.9403,-2.9436,-2.9404,-2.9414,-2.9442,-2.9445,-2.9491,-2.9438,-2.9478,-2.948,-2.9476,-2.9584,-2.9603,-2.9684,-2.9547,-2.9549,-2.955,0,-2.9085,-2.9109,-2.9122,-2.9135,-2.9156,-2.9184,-2.9226,-2.9256,-2.9276,-2.9295,-2.933,-2.9374,-2.9353,-2.9368,-2.9359,-2.9389,-2.9459,-2.9362,-2.9362,-2.938,-2.9537,-2.9556,-2.9569,-2.9446,-2.9448,-2.945,-2.9536,0,-2.8972,-2.9009,-2.9045,-2.9074,-2.9095,-2.9139,-2.9136,-2.9158,-2.9148,-2.9149,-2.92,-2.9211,-2.9241,-2.9254,-2.9244,-2.9315,-2.9302,-2.9278,-2.9239,-2.931,-2.9338,-2.935,-2.9198,-2.9197,-2.9196,-2.9195,0,0,-2.8867,-2.8921,-2.8912,-2.8953,-2.8971,-2.8945,-2.8993,-2.9006,-2.9034,-2.9046,-2.9024,-2.9089,-2.9098,-2.916,-2.9182,-2.9194,-2.9206,-2.9181,-2.9276,-2.9286,-2.9294,-2.9324,-2.9336,-2.9193,-2.9193,-2.9192,-2.9192,0,-2.8826,-2.8838,-2.8886,-2.89,-2.8921,-2.892,-2.8931,-2.8946,-2.8949,-2.8999,-2.8977,-2.9006,-2.9058,-2.9071,-2.9085,-2.9173,-2.9155,-2.9183,-2.9232,-2.9266,-2.9277,-2.9286,-2.9318,-2.933,-2.9189,-2.919,-2.919,0,-2.8742,-2.8754,-2.8777,-2.8816,-2.8828,-2.8864,-2.8822,-2.8861,-2.8887,-2.8856,-2.8906,-2.8911,-2.8929,-2.8988,-2.9014,-2.8994,-2.9108,-2.9071,-2.9077,-2.908,-2.9113,-2.9126,-2.9137,-2.8989,-2.8989,-2.8988,0,0,-2.8706,-2.8741,-2.8751,-2.8806,-2.8816,-2.8816,-2.8834,-2.8826,-2.8843,-2.885,-2.8857,-2.8874,-2.8904,-2.8924,-2.8951,-2.9016,-2.9019,-2.9047,-2.9056,-2.9064,-2.9071,-2.9106,-2.9118,-2.8986,-2.8986,-2.8985,0,0,-2.8689,-2.8703,-2.8691,-2.8754,-2.8772,-2.8785,-2.8818,-2.8802,-2.8827,-2.8822,-2.8809,-2.8813,-2.8868,-2.8874,-2.884,-2.8937,-2.8898,-2.8906,-2.8932,-2.8943,-2.8953,-2.895,-2.8799,0,0,0,0,0,-2.8645,-2.8702,-2.869,-2.87,-2.8748,-2.8791,-2.8797,-2.8789,-2.8762,-2.8789,-2.8792,-2.877,-2.8853,-2.8823,-2.8833,-2.8871,-2.8953,-2.8959,-2.8964,-2.9012,-2.9024,-2.9035,0,0,0,0,0,0,-2.8649,-2.8661,-2.8688,-2.8704,-2.8714,-2.8789,-2.8742,-2.8741,-2.8759,-2.8754,-2.877,-2.8771,-2.8764,-2.8818,-2.8827,-2.8862,-2.8796,-2.8955,-2.896,-2.8965,-2.9016,-2.9026,-2.9035,0,0,0,0,0,-2.8652,-2.8662,-2.8742,-2.8703,-2.8712,-2.8715,-2.874,-2.8739,-2.8752,-2.8757,-2.8757,-2.8744,-2.8765,-2.8772,-2.8823,-2.8859,-2.879,-2.8793,-2.8958,-2.8962,-2.8966,-2.9021,0,0,0,0,0,0,-2.8654,-2.8661,-2.8744,-2.8746,-2.8681,-2.871,-2.8715,-2.8737,-2.8754,-2.8754,-2.873,-2.8727,-2.8766,-2.8771,-2.8777,-2.8858,-2.8785,-2.8788,-2.879,-2.8961,-2.8964,-2.8967,0,0,0,0,0,0,-2.8655,-2.8663,-2.8745,-2.8718,-2.8717,-2.8706,-2.871,-2.8752,-2.8754,-2.8726,-2.8723,-2.8729,-2.8758,-2.8771,-2.8775,-2.8842,-2.8781,-2.8784,-2.8786,-2.8788,-2.8964,-2.8966,0,0,0,0,0,0,-2.8658,-2.8665,-2.8717,-2.8717,-2.8716,-2.8743,-2.8743,-2.8793,-2.8733,-2.8725,-2.8727,-2.8724,-2.8759,-2.8762,-2.8775,-2.8839,-2.8841,-2.8781,-2.8783,-2.8785,-2.8786,0,0,0,0,0,0,0,-2.8661,-2.8618,-2.8729,-2.8716,-2.8715,-2.8769,-2.877,-2.877,-2.8732,-2.873,-2.8727,-2.8725,-2.8762,-2.8766,-2.8769,-2.8838,0,0,-2.8781,-2.8782,0,0,0,0,0,0,0,0,-2.8615,-2.8618,-2.8729,-2.873,-2.873,-2.8769,-2.877,-2.877,-2.8732,-2.873,-2.8728,-2.8726,-2.8763,-2.8766,-2.8769,0,0,0,0,0,0,0,0,0,0,0,0,0,0,0,-2.8729,-2.873,0,-2.8769,-2.877,-2.877,-2.8731,-2.873,-2.8728,-2.8727,-2.8764,-2.8766,-2.8769,0,0,0,0,0,0,0,0,0,0,0,0,0,0,0,0,0,0,0,0,0,0,0,0,0,0,0,0,0,0,0,0,0,0,0,0,0,0,0,0,0,0,0,0,0,0,0,0,0,0,0,0,0,0,0,0,0,0,0,0,0,0,0,0,0,0,0,0,0]}]]]